Date String (YYYY-MM-DD hh:mm:ss) UTC,Instrument flags,Ambient pressure (hPa),Sample flow (lpm),Bypass flow (lpm),Sample temperature (°C),Ambient temperature (°C),ASC tube jacket temperature (°C),LED temperature (°C),Box temperature (°C),Sample RH (%),Span deviation,Mass concentration (μg/m³),Mass concentration (μg/m³),Mass concentration (μg/m³)
DateTimeUTC,F1_M11,P_M11,Q1_M11,Q2_M11,T1_M11,T2_M11,T3_M11,T4_M11,T5_M11,U1_M11,ZSPAN_M11,X0_M11,X2_M11,X1_M11
2022-03-13 18:00:00,,0819.2,4.99,0.00,25.8,25.1,00.0,34.5,27.7,11.3,0000.0,0009.31,0005.15,0004.77
2022-03-13 18:01:00,,0819.2,5.01,0.00,25.8,25.1,00.0,34.6,27.7,11.5,0000.0,0009.41,0005.20,0004.80
2022-03-13 18:02:00,,0819.2,5.00,0.00,25.8,25.1,00.0,34.6,27.7,11.2,0000.0,0009.35,0005.22,0004.82
2022-03-13 18:03:00,,0819.2,5.01,0.00,25.8,25.1,00.0,34.6,27.7,11.3,0000.0,0009.43,0005.24,0004.84
2022-03-13 18:04:00,,0819.1,5.00,0.00,25.8,25.1,00.0,34.6,27.7,11.3,0000.0,0009.49,0005.28,0004.88
2022-03-13 18:05:00,,0819.1,5.00,0.00,25.9,25.1,00.0,34.6,27.7,11.4,0000.0,0009.35,0005.36,0004.93
2022-03-13 18:06:00,,0819.0,5.00,0.00,25.9,25.2,00.0,34.7,27.7,11.5,0000.0,0009.08,0005.42,0004.95
2022-03-13 18:07:00,,0819.0,4.98,0.00,25.9,25.2,00.0,34.7,27.8,11.5,0000.0,0008.92,0005.44,0004.96
2022-03-13 18:08:00,,0819.0,5.00,0.00,25.9,25.2,00.0,34.7,27.8,11.4,0000.0,0008.93,0005.43,0004.96
2022-03-13 18:09:00,,0818.9,5.00,0.00,25.9,25.2,00.0,34.7,27.8,11.3,0000.0,0008.84,0005.36,0004.92
2022-03-13 18:10:00,,0818.9,5.00,0.00,26.0,25.2,00.0,34.7,27.8,11.2,0000.0,0009.54,0005.30,0004.88
2022-03-13 18:11:00,,0818.9,5.00,0.00,26.0,25.3,00.0,34.7,27.8,11.4,0000.0,0009.70,0005.29,0004.85
2022-03-13 18:12:00,,0818.9,5.00,0.00,26.0,25.3,00.0,34.8,27.9,11.4,0000.0,0009.63,0005.27,0004.85
2022-03-13 18:13:00,,0819.0,5.00,0.00,26.0,25.3,00.0,34.8,27.9,11.6,0000.0,0009.71,0005.32,0004.87
2022-03-13 18:14:00,,0819.0,5.02,0.00,26.0,25.3,00.0,34.8,27.9,11.6,0000.0,0009.64,0005.32,0004.87
2022-03-13 18:15:00,,0818.9,4.99,0.00,26.1,25.4,00.0,34.8,27.9,11.8,0000.0,0009.49,0005.28,0004.84
2022-03-13 18:16:00,,0819.0,4.99,0.00,26.1,25.4,00.0,34.8,28.0,11.4,0000.0,0009.41,0005.23,0004.80
2022-03-13 18:17:00,,0819.0,5.01,0.00,26.1,25.4,00.0,34.9,28.0,11.4,0000.0,0009.21,0005.16,0004.77
2022-03-13 18:18:00,,0818.9,5.00,0.00,26.1,25.4,00.0,34.9,28.0,11.6,0000.0,0009.34,0005.14,0004.76
2022-03-13 18:19:00,,0818.8,5.00,0.00,26.1,25.4,00.0,34.9,28.0,11.6,0000.0,0010.48,0005.16,0004.78
2022-03-13 18:20:00,,0818.8,5.01,0.00,26.2,25.5,00.0,34.9,28.0,11.5,0000.0,0010.87,0005.23,0004.81
2022-03-13 18:21:00,,0818.8,4.99,0.00,26.2,25.5,00.0,34.9,28.1,11.7,0000.0,0010.16,0005.25,0004.84
2022-03-13 18:22:00,,0818.8,5.00,0.00,26.2,25.5,00.0,35.0,28.1,11.6,0000.0,0009.69,0005.21,0004.83
2022-03-13 18:23:00,,0818.8,5.01,0.00,26.2,25.5,00.0,35.0,28.1,11.3,0000.0,0009.72,0005.20,0004.81
2022-03-13 18:24:00,,0818.8,4.99,0.00,26.2,25.5,00.0,35.0,28.1,11.5,0000.0,0009.66,0005.15,0004.79
2022-03-13 18:25:00,,0818.8,4.99,0.00,26.2,25.5,00.0,35.0,28.1,11.1,0000.0,0009.60,0005.11,0004.75
2022-03-13 18:26:00,,0818.8,5.00,0.00,26.2,25.5,00.0,35.0,28.1,11.1,0000.0,0010.13,0005.15,0004.76
2022-03-13 18:27:00,,0818.8,5.00,0.00,26.3,25.6,00.0,35.0,28.2,10.8,0000.0,0010.30,0005.12,0004.73
2022-03-13 18:28:00,,0818.8,5.01,0.00,26.3,25.6,00.0,35.1,28.2,10.9,0000.0,0010.38,0005.06,0004.66
2022-03-13 18:29:00,,0818.7,5.00,0.00,26.3,25.6,00.0,35.1,28.2,10.6,0000.0,0010.11,0005.00,0004.61
2022-03-13 18:30:00,,0818.8,4.99,0.00,26.3,25.6,00.0,35.1,28.2,10.7,0000.0,0008.78,0004.87,0004.51
2022-03-13 18:31:00,,0818.8,5.02,0.00,26.3,25.6,00.0,35.1,28.2,10.6,0000.0,0008.37,0004.75,0004.40
2022-03-13 18:32:00,,0818.7,4.99,0.00,26.4,25.7,00.0,35.1,28.2,10.7,0000.0,0008.26,0004.67,0004.31
2022-03-13 18:33:00,,0818.6,5.00,0.00,26.4,25.7,00.0,35.2,28.3,09.7,0000.0,0008.15,0004.55,0004.19
2022-03-13 18:34:00,,0818.5,5.00,0.00,26.4,25.7,00.0,35.2,28.3,09.4,0000.0,0008.35,0004.37,0004.02
2022-03-13 18:35:00,,0818.5,4.99,0.00,26.4,25.7,00.0,35.2,28.3,08.8,0000.0,0008.45,0004.16,0003.82
2022-03-13 18:36:00,,0818.5,5.00,0.00,26.4,25.7,00.0,35.2,28.3,08.9,0000.0,0008.21,0003.94,0003.62
2022-03-13 18:37:00,,0818.5,5.00,0.00,26.4,25.7,00.0,35.2,28.2,08.9,0000.0,0007.46,0003.70,0003.42
2022-03-13 18:38:00,,0818.4,5.00,0.00,26.4,25.7,00.0,35.2,28.2,08.5,0000.0,0006.77,0003.49,0003.23
2022-03-13 18:39:00,,0818.4,5.00,0.00,26.4,25.7,00.0,35.3,28.2,08.9,0000.0,0006.18,0003.33,0003.03
2022-03-13 18:40:00,,0818.4,5.00,0.00,26.4,25.7,00.0,35.3,28.2,08.9,0000.0,0005.69,0003.13,0002.72
2022-03-13 18:41:00,,0818.4,5.00,0.00,26.4,25.7,00.0,35.3,28.2,09.1,0000.0,0005.46,0002.94,0002.48
2022-03-13 18:42:00,,0818.4,5.00,0.00,26.4,25.6,00.0,35.3,28.2,08.9,0000.0,0005.10,0002.65,0002.22
2022-03-13 18:43:00,,0818.4,4.99,0.00,26.4,25.6,00.0,35.3,28.2,09.1,0000.0,0004.81,0002.36,0001.92
2022-03-13 18:44:00,,0818.4,5.01,0.00,26.4,25.6,00.0,35.3,28.2,09.2,0000.0,0004.56,0002.13,0001.67
2022-03-13 18:45:00,,0818.4,4.99,0.00,26.4,25.7,00.0,35.3,28.2,09.3,0000.0,0003.88,0002.01,0001.55
2022-03-13 18:46:00,,0818.4,5.00,0.00,26.4,25.7,00.0,35.3,28.2,09.1,0000.0,0002.82,0001.89,0001.47
2022-03-13 18:47:00,,0818.3,5.00,0.00,26.4,25.7,00.0,35.3,28.2,08.7,0000.0,0002.86,0001.85,0001.42
2022-03-13 18:48:00,,0818.3,5.00,0.00,26.4,25.7,00.0,35.3,28.2,08.7,0000.0,0002.89,0001.80,0001.35
2022-03-13 18:49:00,,0818.3,5.00,0.00,26.4,25.7,00.0,35.3,28.2,09.3,0000.0,0003.05,0001.84,0001.33
2022-03-13 18:50:00,,0818.2,5.00,0.00,26.4,25.7,00.0,35.3,28.3,08.6,0000.0,0002.94,0001.77,0001.30
2022-03-13 18:51:00,,0818.2,5.00,0.00,26.4,25.7,00.0,35.3,28.3,08.9,0000.0,0003.01,0001.78,0001.27
2022-03-13 18:52:00,,0818.2,5.00,0.00,26.4,25.7,00.0,35.3,28.3,08.8,0000.0,0002.94,0001.73,0001.24
2022-03-13 18:53:00,,0818.2,5.00,0.00,26.4,25.7,00.0,35.3,28.3,08.7,0000.0,0003.00,0001.72,0001.22
2022-03-13 18:54:00,,0818.2,4.99,0.00,26.4,25.7,00.0,35.3,28.2,08.2,0000.0,0002.99,0001.69,0001.19
2022-03-13 18:55:00,,0818.2,5.00,0.00,26.5,25.7,00.0,35.3,28.2,08.1,0000.0,0002.89,0001.64,0001.17
2022-03-13 18:56:00,,0818.1,5.01,0.00,26.4,25.7,00.0,35.3,28.2,08.3,0000.0,0002.88,0001.63,0001.17
2022-03-13 18:57:00,,0818.2,4.99,0.00,26.5,25.8,00.0,35.3,28.2,08.5,0000.0,0002.86,0001.62,0001.15
2022-03-13 18:58:00,,0818.2,4.99,0.00,26.5,25.8,00.0,35.4,28.2,08.3,0000.0,0002.78,0001.62,0001.15
2022-03-13 18:59:00,,0818.1,5.00,0.00,26.5,25.8,00.0,35.4,28.2,08.1,0000.0,0002.64,0001.57,0001.14
